This demonstration page uses our WeatherBlox Daily Observations layout. Learn more.

Left ArrowRight Arrow

Hourly Observations for December 6, 2022

Temp ( °F °C ) Dew Point ( °F °C ) Humidity (%) Winds ( mph kmh ) Pressure ( in mb ) Visibility ( mi km ) Precip ( " mm )
12:54 am 00:54 Mostly Clear 25 -3.9 17 -8.3 71 71 NNE 9 15 29.99 1016 10 16 0.00 0.00
1:54 am 01:54 Mostly Cloudy 26 -3.3 18 -7.8 71 71 N 7 11 30.01 1016 10 16 0.00 0.00
2:54 am 02:54 Clear 24 -4.4 16 -8.9 71 71 NNE 8 13 30.01 1016 10 16 0.00 0.00
3:54 am 03:54 Clear 18 -7.8 13 -10.6 80 80 NNE 8 13 30.01 1016 10 16 0.00 0.00
4:54 am 04:54 Clear 22 -5.6 16 -8.9 77 77 N 3 6 30.01 1016 10 16 0.00 0.00
5:54 am 05:54 Cloudy 24 -4.4 17 -8.3 74 74 Calm 30.01 1016 10 16 0.00 0.00
6:54 am 06:54 Cloudy 24 -4.4 18 -7.8 77 77 S 5 7 30.01 1016 10 16 0.00 0.00
7:54 am 07:54 Mostly Cloudy 25 -3.9 17 -8.3 71 71 NNW 5 7 30.06 1018 10 16 0.00 0.00
8:54 am 08:54 Mostly Cloudy 26 -3.3 18 -7.8 71 71 N 3 6 30.06 1018 10 16 0.00 0.00
9:54 am 09:54 Sunny 29 -1.7 19 -7.2 66 66 SSE 5 7 30.06 1018 10 16 0.00 0.00
10:54 am 10:54 Sunny 33 0.6 20 -6.7 58 58 VRB 3 6 30.04 1017 10 16 0.00 0.00
11:54 am 11:54 Sunny 37 2.8 21 -6.1 52 52 VRB 5 7 30.02 1017 10 16 0.00 0.00
12:54 pm 12:54 Sunny 40 4.4 23 -5 50 50 SW 6 9 29.99 1016 10 16 0.00 0.00
1:54 pm 13:54 Sunny 43 6.1 24 -4.4 47 47 S 6 9 29.99 1016 10 16 0.00 0.00
2:54 pm 14:54 Sunny 44 6.7 23 -5 43 43 WSW 8 13 30.00 1016 10 16 0.00 0.00
3:54 pm 15:54 Sunny 45 7.2 22 -5.6 40 40 W 7 11 30.02 1017 10 16 0.00 0.00
4:54 pm 16:54 Sunny 37 2.8 20 -6.7 50 50 S 6 9 30.02 1017 10 16 0.00 0.00
5:54 pm 17:54 Clear 36 2.2 21 -6.1 54 54 SSW 6 9 30.04 1017 10 16 0.00 0.00
6:54 pm 18:54 Clear 33 0.6 20 -6.7 58 58 S 6 9 30.05 1018 10 16 0.00 0.00
7:54 pm 19:54 Clear 29 -1.7 19 -7.2 66 66 NNW 3 6 30.08 1019 10 16 0.00 0.00
8:54 pm 20:54 Clear 27 -2.8 18 -7.8 68 68 N 5 7 30.11 1020 10 16 0.00 0.00
9:54 pm 21:54 Clear 25 -3.9 16 -8.9 68 68 Calm 30.12 1020 10 16 0.00 0.00
10:54 pm 22:54 Clear 23 -5 15 -9.4 71 71 Calm 30.13 1020 10 16 0.00 0.00
11:54 pm 23:54 Clear 22 -5.6 14 -10 71 71 Calm 30.14 1021 9 14 0.00 0.00

Powered by AerisWeather